Location: Home
(42.5358°N, 72.7383°W)
Time: 22:05:28
(UTC-05:00)

Vanguard 1 Rocket - Pass Details

Date: 07 December 2021
Orbit: 651 x 4225 km, 34.3° (Epoch: 26 January)

Event Time Altitude Azimuth Distance (km) Brightness Sun altitude
Exits shadow 02:20:48 48° 126° (SE) 2,911 9.8 -51.7°
Drops below altitude 10° 02:35:10 10° 93° (E) 6,433 12.2 -49.1°
Sets 02:41:20 0° 90° (E) 7,898 12.8 -48.0°
